Hettinger, ND

12:36 PM MDT on May 27, 2017 (GMT -0600)
Hettinger Municipal

Weather History for KHEI - November, 2011

Change the Weather History Date:

Tuesday, November 15, 2011

  Actual Average Record
Temperature  
Mean Temperature 22 °F -  
Max Temperature 35 °F 41 °F 71 °F (1999)
Min Temperature 9 °F 18 °F -11 °F (1997)
Degree Days  
Heating Degree Days 43 36  
Month to date heating degree days 474 484  
Since 1 July heating degree days 1270 1539  
Moisture  
Dew Point 13 °F    
Average Humidity 64    
Maximum Humidity 88    
Minimum Humidity 32    
Precipitation  
Precipitation T in 0.02 in 0.00 in (2017)
Month to date precipitation T 0.49  
Year to date precipitation 15.64 15.68  
Sea Level Pressure  
Sea Level Pressure 29.91 in    
Wind  
Wind Speed 17 mph (WNW)    
Max Wind Speed 36 mph    
Max Gust Speed 44 mph    
Visibility 10 miles    
Events      
T = Trace of Precipitation, MM = Missing Value Source: NWS Daily Summary

Daily Weather History Graph

Daily Weather History Graph

Search for Another Location

Airport or City:

Trip Planner

Search our weather history database for the weather conditions in past years. The results will help you decide how hot, cold, wet, or windy it might be!

Date:

Astronomy

Nov. 15, 2011 Rise Set
Actual Time 6:50 AM MST 4:19 PM MST
Civil Twilight 6:18 AM MST 4:51 PM MST
Nautical Twilight 5:42 AM MST 5:27 PM MST
Astronomical Twilight 5:06 AM MST 6:03 PM MST
Moon 8:29 PM MST (11/15) 10:53 AM MST (11/15)
Length of Visible Light 10h 33m
Length of Day
9h 28m
Waning Gibbous, 78% of the Moon is Illuminated
Nov 15
Waning Gibbous
Nov 18
Last Quarter
Nov 24
New
Dec 2
First Quarter
Dec 10
Full

Hourly Weather History & Observations

Time (MST) Temp. Windchill Dew Point Humidity Pressure Visibility Wind Dir Wind Speed Gust Speed Precip Events Conditions
12:53 AM 26.1 °F 16.8 °F 23.0 °F 88% 29.59 in 10.0 mi West 9.2 mph - N/A   Clear
2:53 AM 28.9 °F 16.5 °F 25.0 °F 85% 29.62 in 10.0 mi West 18.4 mph - N/A   Partly Cloudy
3:53 AM 30.0 °F 16.9 °F 24.1 °F 79% 29.66 in 10.0 mi WNW 21.9 mph 31.1 mph N/A   Mostly Cloudy
4:53 AM 27.0 °F 15.6 °F 21.0 °F 78% 29.72 in 10.0 mi WNW 13.8 mph 21.9 mph N/A   Scattered Clouds
6:53 AM 27.0 °F 12.2 °F 18.0 °F 69% 29.82 in 10.0 mi WNW 24.2 mph 31.1 mph N/A   Mostly Cloudy
7:53 AM 25.0 °F 11.3 °F 17.1 °F 72% 29.86 in 10.0 mi West 18.4 mph 25.3 mph N/A   Clear
8:53 AM 27.0 °F 11.9 °F 17.1 °F 66% 29.89 in 10.0 mi West 25.3 mph 33.4 mph N/A   Clear
9:53 AM 28.9 °F 14.5 °F 17.1 °F 61% 29.91 in 10.0 mi WNW 25.3 mph 35.7 mph N/A   Partly Cloudy
10:53 AM 30.0 °F 15.2 °F 12.9 °F 49% 29.91 in 10.0 mi WNW 28.8 mph 39.1 mph N/A   Mostly Cloudy
11:53 AM 32.0 °F 17.9 °F 12.9 °F 45% 29.90 in 10.0 mi WNW 28.8 mph 39.1 mph N/A   Partly Cloudy
12:53 PM 34.0 °F 21.5 °F 10.0 °F 37% 29.89 in 10.0 mi WNW 24.2 mph 35.7 mph N/A   Partly Cloudy
1:53 PM 33.1 °F 18.9 °F 7.0 °F 34% 29.91 in 10.0 mi WNW 31.1 mph 43.7 mph N/A   Partly Cloudy
2:53 PM 33.1 °F 20.6 °F 6.1 °F 32% 29.93 in 10.0 mi WNW 23.0 mph 41.4 mph N/A   Clear
3:53 PM 30.0 °F 17.9 °F 6.1 °F 36% 29.96 in 10.0 mi WNW 18.4 mph 27.6 mph N/A   Clear
4:53 PM 25.0 °F 14.2 °F 10.9 °F 55% 30.01 in 10.0 mi WNW 11.5 mph - N/A   Clear
5:53 PM 21.0 °F 10.6 °F 10.9 °F 65% 30.04 in 10.0 mi WNW 9.2 mph - N/A   Clear
6:53 PM 18.0 °F 7.7 °F 10.9 °F 74% 30.06 in 10.0 mi WNW 8.1 mph - N/A   Clear
7:53 PM 16.0 °F 5.3 °F 12.0 °F 84% 30.07 in 10.0 mi West 8.1 mph - N/A   Partly Cloudy
8:53 PM 15.1 °F 6.4 °F 10.9 °F 84% 30.09 in 10.0 mi West 5.8 mph - N/A   Clear
9:53 PM 10.0 °F 3.6 °F 5.0 °F 80% 30.09 in 10.0 mi NW 3.5 mph - N/A   Clear
11:53 PM 12.0 °F 1.5 °F 5.0 °F 73% 30.12 in 10.0 mi WNW 6.9 mph - N/A   Clear